Time,TemperatureF,DewpointF,PressureIn,WindDirection,WindDirectionDegrees,WindSpeedMPH,WindSpeedGustMPH,Humidity,HourlyPrecipIn,Conditions,Clouds,dailyrainin,SoftwareType,DateUTC
2013-06-06 00:09:00,54.4,48.0,30.16,ENE,59,0.0,0.0,79,0.00,,,0.00,weatherlink.com 1.10,2013-06-06 04:09:00,
2013-06-06 00:24:00,53.8,48.0,30.16,ENE,59,0.0,0.0,81,0.00,,,0.00,weatherlink.com 1.10,2013-06-06 04:24:00,
2013-06-06 00:39:00,53.5,48.0,30.16,ENE,59,0.0,0.0,82,0.00,,,0.00,weatherlink.com 1.10,2013-06-06 04:39:00,
2013-06-06 00:55:00,53.1,48.0,30.15,ENE,59,0.0,0.0,83,0.00,,,0.00,weatherlink.com 1.10,2013-06-06 04:55:00,
2013-06-06 01:10:00,52.6,48.0,30.15,ENE,59,0.0,0.0,85,0.00,,,0.00,weatherlink.com 1.10,2013-06-06 05:10:00,
2013-06-06 01:25:00,52.3,48.0,30.15,ENE,59,0.0,0.0,85,0.00,,,0.00,weatherlink.com 1.10,2013-06-06 05:25:00,
2013-06-06 01:40:00,51.9,48.0,30.15,ENE,59,0.0,0.0,86,0.00,,,0.00,weatherlink.com 1.10,2013-06-06 05:40:00,
2013-06-06 01:55:00,51.8,48.0,30.16,ENE,59,0.0,0.0,88,0.00,,,0.00,weatherlink.com 1.10,2013-06-06 05:55:00,
2013-06-06 02:10:00,51.6,48.0,30.16,ENE,59,0.0,0.0,88,0.00,,,0.00,weatherlink.com 1.10,2013-06-06 06:10:00,
2013-06-06 02:25:00,51.4,48.0,30.16,ENE,59,0.0,0.0,89,0.00,,,0.00,weatherlink.com 1.10,2013-06-06 06:25:00,
2013-06-06 02:40:00,51.2,48.0,30.17,ENE,59,0.0,0.0,90,0.00,,,0.00,weatherlink.com 1.10,2013-06-06 06:40:00,
2013-06-06 02:55:00,51.0,48.0,30.17,ENE,59,0.0,0.0,90,0.00,,,0.00,weatherlink.com 1.10,2013-06-06 06:55:00,
2013-06-06 03:10:00,50.8,48.0,30.18,ENE,59,0.0,0.0,91,0.00,,,0.00,weatherlink.com 1.10,2013-06-06 07:10:00,
2013-06-06 03:25:00,50.7,49.0,30.17,ENE,59,0.0,0.0,92,0.00,,,0.00,weatherlink.com 1.10,2013-06-06 07:25:00,
2013-06-06 03:40:00,50.5,48.0,30.16,ENE,59,0.0,0.0,92,0.00,,,0.00,weatherlink.com 1.10,2013-06-06 07:40:00,
2013-06-06 03:55:00,50.4,48.0,30.16,ENE,59,0.0,0.0,92,0.00,,,0.00,weatherlink.com 1.10,2013-06-06 07:55:00,
2013-06-06 04:10:00,50.2,48.0,30.16,ENE,59,0.0,0.0,93,0.00,,,0.00,weatherlink.com 1.10,2013-06-06 08:10:00,
2013-06-06 04:25:00,50.1,48.0,30.16,ENE,59,0.0,0.0,93,0.00,,,0.00,weatherlink.com 1.10,2013-06-06 08:25:00,
2013-06-06 04:40:00,50.0,48.0,30.17,ENE,59,0.0,0.0,93,0.00,,,0.00,weatherlink.com 1.10,2013-06-06 08:40:00,
2013-06-06 04:55:00,49.9,48.0,30.16,ENE,59,0.0,0.0,93,0.00,,,0.00,weatherlink.com 1.10,2013-06-06 08:55:00,
2013-06-06 05:10:00,49.6,48.0,30.16,ENE,59,0.0,0.0,93,0.00,,,0.00,weatherlink.com 1.10,2013-06-06 09:10:00,
2013-06-06 05:25:00,49.6,48.0,30.16,ENE,59,0.0,0.0,94,0.00,,,0.00,weatherlink.com 1.10,2013-06-06 09:25:00,
2013-06-06 05:40:00,49.5,48.0,30.16,ENE,59,0.0,0.0,94,0.00,,,0.00,weatherlink.com 1.10,2013-06-06 09:40:00,
2013-06-06 05:55:00,49.4,48.0,30.16,ENE,59,0.0,0.0,94,0.00,,,0.00,weatherlink.com 1.10,2013-06-06 09:55:00,
2013-06-06 06:10:00,49.6,48.0,30.17,ENE,59,0.0,0.0,95,0.00,,,0.00,weatherlink.com 1.10,2013-06-06 10:10:00,
2013-06-06 06:25:00,50.1,49.0,30.16,ENE,59,0.0,0.0,95,0.00,,,0.00,weatherlink.com 1.10,2013-06-06 10:25:00,
2013-06-06 06:40:00,50.8,50.0,30.18,ENE,59,0.0,0.0,96,0.00,,,0.00,weatherlink.com 1.10,2013-06-06 10:40:00,
2013-06-06 06:55:00,51.7,51.0,30.18,ENE,59,0.0,0.0,96,0.00,,,0.00,weatherlink.com 1.10,2013-06-06 10:55:00,
2013-06-06 07:10:00,52.6,52.0,30.18,ENE,59,0.0,1.0,96,0.00,,,0.00,weatherlink.com 1.10,2013-06-06 11:10:00,
2013-06-06 07:25:00,53.6,53.0,30.17,ENE,59,0.0,1.0,96,0.00,,,0.00,weatherlink.com 1.10,2013-06-06 11:25:00,
2013-06-06 07:40:00,54.7,54.0,30.17,SSW,204,0.0,3.0,96,0.00,,,0.00,weatherlink.com 1.10,2013-06-06 11:40:00,
2013-06-06 07:55:00,55.5,54.0,30.18,East,80,0.0,2.0,95,0.00,,,0.00,weatherlink.com 1.10,2013-06-06 11:55:00,
2013-06-06 08:10:00,55.9,54.0,30.17,SSW,199,1.0,3.0,93,0.00,,,0.00,weatherlink.com 1.10,2013-06-06 12:10:00,
2013-06-06 08:25:00,56.6,54.0,30.17,WSW,240,2.0,3.0,92,0.00,,,0.00,weatherlink.com 1.10,2013-06-06 12:25:00,
2013-06-06 08:40:00,57.4,55.0,30.17,SW,223,0.0,3.0,91,0.00,,,0.00,weatherlink.com 1.10,2013-06-06 12:40:00,
2013-06-06 08:55:00,58.2,55.0,30.17,SW,224,0.0,5.0,89,0.00,,,0.00,weatherlink.com 1.10,2013-06-06 12:55:00,
2013-06-06 09:10:00,58.7,56.0,30.16,SW,221,0.0,3.0,89,0.00,,,0.00,weatherlink.com 1.10,2013-06-06 13:10:00,
2013-06-06 09:25:00,59.4,55.0,30.16,SW,220,0.0,2.0,86,0.00,,,0.00,weatherlink.com 1.10,2013-06-06 13:25:00,
2013-06-06 09:40:00,60.3,56.0,30.15,WSW,243,3.0,4.0,86,0.00,,,0.00,weatherlink.com 1.10,2013-06-06 13:40:00,
2013-06-06 09:56:00,61.1,57.0,30.15,NE,35,0.0,3.0,87,0.00,,,0.00,weatherlink.com 1.10,2013-06-06 13:56:00,
2013-06-06 10:11:00,62.2,57.0,30.15,WSW,245,3.0,4.0,84,0.00,,,0.00,weatherlink.com 1.10,2013-06-06 14:11:00,
2013-06-06 10:26:00,63.4,59.0,30.14,WSW,252,0.0,6.0,84,0.00,,,0.00,weatherlink.com 1.10,2013-06-06 14:26:00,
2013-06-06 10:41:00,64.5,58.0,30.14,West,267,1.0,5.0,80,0.00,,,0.00,weatherlink.com 1.10,2013-06-06 14:41:00,
2013-06-06 10:56:00,65.6,59.0,30.14,West,268,2.0,3.0,78,0.00,,,0.00,weatherlink.com 1.10,2013-06-06 14:56:00,
2013-06-06 11:11:00,67.2,57.0,30.14,East,89,0.0,8.0,69,0.00,,,0.00,weatherlink.com 1.10,2013-06-06 15:11:00,
2013-06-06 11:26:00,68.2,58.0,30.13,East,89,2.0,6.0,70,0.00,,,0.00,weatherlink.com 1.10,2013-06-06 15:26:00,
2013-06-06 11:41:00,68.7,58.0,30.13,WSW,242,2.0,7.0,69,0.00,,,0.00,weatherlink.com 1.10,2013-06-06 15:41:00,
2013-06-06 11:56:00,68.6,57.0,30.12,South,180,1.0,8.0,67,0.00,,,0.00,weatherlink.com 1.10,2013-06-06 15:56:00,
2013-06-06 12:11:00,68.6,57.0,30.12,SW,215,3.0,7.0,66,0.00,,,0.00,weatherlink.com 1.10,2013-06-06 16:11:00,
2013-06-06 12:26:00,68.4,59.0,30.12,NE,36,0.0,4.0,71,0.00,,,0.00,weatherlink.com 1.10,2013-06-06 16:26:00,
2013-06-06 12:41:00,68.4,57.0,30.12,WNW,292,0.0,8.0,66,0.00,,,0.00,weatherlink.com 1.10,2013-06-06 16:41:00,
2013-06-06 12:56:00,68.6,57.0,30.11,NNW,334,1.0,5.0,66,0.00,,,0.00,weatherlink.com 1.10,2013-06-06 16:56:00,
2013-06-06 13:11:00,68.6,57.0,30.11,NE,34,0.0,7.0,67,0.00,,,0.00,weatherlink.com 1.10,2013-06-06 17:11:00,
2013-06-06 13:26:00,68.0,57.0,30.11,West,259,1.0,6.0,68,0.00,,,0.00,weatherlink.com 1.10,2013-06-06 17:26:00,
2013-06-06 13:41:00,67.6,56.0,30.09,SSW,206,0.0,4.0,67,0.00,,,0.00,weatherlink.com 1.10,2013-06-06 17:41:00,
2013-06-06 13:56:00,67.3,56.0,30.10,WNW,298,2.0,6.0,67,0.00,,,0.00,weatherlink.com 1.10,2013-06-06 17:56:00,
2013-06-06 14:11:00,66.8,55.0,30.10,North,360,4.0,6.0,67,0.00,,,0.00,weatherlink.com 1.10,2013-06-06 18:11:00,
2013-06-06 14:41:00,66.6,56.0,30.11,SW,219,0.0,6.0,68,0.00,,,0.00,weatherlink.com 1.10,2013-06-06 18:41:00,
2013-06-06 14:56:00,66.4,56.0,30.11,NNW,333,3.0,5.0,69,0.00,,,0.00,weatherlink.com 1.10,2013-06-06 18:56:00,
2013-06-06 15:11:00,66.3,56.0,30.10,WSW,252,0.0,5.0,70,0.00,,,0.00,weatherlink.com 1.10,2013-06-06 19:11:00,
2013-06-06 15:26:00,66.3,56.0,30.10,West,267,2.0,4.0,70,0.00,,,0.00,weatherlink.com 1.10,2013-06-06 19:26:00,
2013-06-06 15:41:00,66.4,54.0,30.10,SSW,194,3.0,5.0,65,0.00,,,0.00,weatherlink.com 1.10,2013-06-06 19:41:00,
2013-06-06 15:56:00,66.4,54.0,30.09,WSW,244,0.0,3.0,65,0.00,,,0.00,weatherlink.com 1.10,2013-06-06 19:56:00,
2013-06-06 16:11:00,66.3,53.0,30.08,SW,236,0.0,7.0,63,0.00,,,0.00,weatherlink.com 1.10,2013-06-06 20:11:00,
2013-06-06 16:26:00,65.9,53.0,30.08,WSW,238,2.0,5.0,63,0.00,,,0.00,weatherlink.com 1.10,2013-06-06 20:26:00,
2013-06-06 16:57:00,65.2,52.0,30.08,North,9,0.0,2.0,63,0.00,,,0.00,weatherlink.com 1.10,2013-06-06 20:57:00,
2013-06-06 17:11:00,64.9,54.0,30.08,SSW,210,2.0,3.0,67,0.00,,,0.00,weatherlink.com 1.10,2013-06-06 21:11:00,
2013-06-06 17:41:00,64.6,52.0,30.09,ENE,62,1.0,2.0,65,0.00,,,0.00,weatherlink.com 1.10,2013-06-06 21:41:00,
2013-06-06 17:57:00,64.3,54.0,30.09,NW,311,0.0,2.0,69,0.00,,,0.00,weatherlink.com 1.10,2013-06-06 21:57:00,
2013-06-06 18:12:00,63.5,54.0,30.09,WSW,240,0.0,3.0,71,0.00,,,0.00,weatherlink.com 1.10,2013-06-06 22:12:00,
2013-06-06 18:27:00,62.2,55.0,30.09,SW,216,0.0,1.0,77,0.00,,,0.00,weatherlink.com 1.10,2013-06-06 22:27:00,
2013-06-06 18:41:00,60.7,56.0,30.09,SW,216,0.0,0.0,84,0.02,,,0.02,weatherlink.com 1.10,2013-06-06 22:41:00,
2013-06-06 18:56:00,59.5,56.0,30.09,SW,216,0.0,2.0,87,0.02,,,0.02,weatherlink.com 1.10,2013-06-06 22:56:00,
2013-06-06 19:11:00,58.8,56.0,30.09,SW,216,0.0,1.0,90,0.03,,,0.03,weatherlink.com 1.10,2013-06-06 23:11:00,
2013-06-06 19:27:00,58.4,56.0,30.09,SW,216,0.0,1.0,92,0.03,,,0.04,weatherlink.com 1.10,2013-06-06 23:27:00,
2013-06-06 19:41:00,58.2,56.0,30.08,SW,216,0.0,1.0,93,0.04,,,0.06,weatherlink.com 1.10,2013-06-06 23:41:00,
2013-06-06 19:56:00,58.1,56.0,30.08,SW,216,0.0,2.0,94,0.04,,,0.06,weatherlink.com 1.10,2013-06-06 23:56:00,
2013-06-06 20:11:00,57.9,56.0,30.08,SW,216,0.0,1.0,94,0.03,,,0.07,weatherlink.com 1.10,2013-06-07 00:11:00,
2013-06-06 20:27:00,57.8,56.0,30.07,SW,216,0.0,1.0,94,0.03,,,0.08,weatherlink.com 1.10,2013-06-07 00:27:00,
2013-06-06 20:42:00,57.8,56.0,30.07,SW,216,0.0,0.0,95,0.02,,,0.08,weatherlink.com 1.10,2013-06-07 00:42:00,
2013-06-06 20:57:00,58.0,57.0,30.07,SW,216,1.0,1.0,95,0.02,,,0.08,weatherlink.com 1.10,2013-06-07 00:57:00,
2013-06-06 21:12:00,58.2,57.0,30.07,SW,216,0.0,2.0,95,0.01,,,0.08,weatherlink.com 1.10,2013-06-07 01:12:00,
2013-06-06 21:27:00,58.3,57.0,30.07,SW,216,0.0,1.0,96,0.01,,,0.09,weatherlink.com 1.10,2013-06-07 01:27:00,
2013-06-06 21:42:00,58.4,57.0,30.08,SW,216,0.0,1.0,96,0.01,,,0.09,weatherlink.com 1.10,2013-06-07 01:42:00,
2013-06-06 21:57:00,58.5,57.0,30.08,SW,216,0.0,1.0,96,0.01,,,0.09,weatherlink.com 1.10,2013-06-07 01:57:00,
2013-06-06 22:12:00,58.5,57.0,30.08,SW,216,0.0,0.0,96,0.02,,,0.10,weatherlink.com 1.10,2013-06-07 02:12:00,
2013-06-06 22:27:00,58.5,57.0,30.07,SW,216,0.0,0.0,96,0.03,,,0.12,weatherlink.com 1.10,2013-06-07 02:27:00,
2013-06-06 22:42:00,58.5,57.0,30.07,SW,216,0.0,2.0,96,0.04,,,0.13,weatherlink.com 1.10,2013-06-07 02:42:00,
2013-06-06 22:57:00,58.3,57.0,30.06,SW,216,0.0,2.0,96,0.05,,,0.14,weatherlink.com 1.10,2013-06-07 02:57:00,
2013-06-06 23:12:00,58.1,57.0,30.06,SW,221,0.0,3.0,96,0.05,,,0.15,weatherlink.com 1.10,2013-06-07 03:12:00,
2013-06-06 23:27:00,57.9,57.0,30.05,WSW,248,0.0,2.0,96,0.04,,,0.16,weatherlink.com 1.10,2013-06-07 03:27:00,
2013-06-06 23:42:00,57.8,57.0,30.05,SW,225,1.0,3.0,96,0.04,,,0.17,weatherlink.com 1.10,2013-06-07 03:42:00,
2013-06-06 23:57:00,57.8,57.0,30.06,West,261,1.0,4.0,96,0.04,,,0.18,weatherlink.com 1.10,2013-06-07 03:57:00,